This is the latest recevied weather packets stored in our database for station/object HG5CJW-10. If no packets are shown the sender has not sent any weather packets the latest 10 day(s).
| Time | Temp. | Humidity | Pressure | Rain* | Wind** | Luminosity | Snow |
|---|---|---|---|---|---|---|---|
| 1788256978 | 26.67° C | 41% | 1037.1 hPa | - | - | - | - |
| 1788256087 | 26.11° C | 42% | 1036.8 hPa | - | - | - | - |
| 1788255171 | 26.11° C | 42% | 1037.3 hPa | - | - | - | - |
| 1788254271 | 25.56° C | 43% | 1037.3 hPa | - | - | - | - |
| 1788253371 | 25° C | 44% | 1037.2 hPa | - | - | - | - |
| 1788252471 | 24.44° C | 45% | 1037.2 hPa | - | - | - | - |
| 1788251570 | 24.44° C | 45% | 1037.3 hPa | - | - | - | - |
| 1788250670 | 23.89° C | 46% | 1037.3 hPa | - | - | - | - |
| 1788249770 | 23.33° C | 48% | 1037.3 hPa | - | - | - | - |
| 1788248870 | 22.78° C | 49% | 1037.3 hPa | - | - | - | - |
| 1788247979 | 22.78° C | 50% | 1037.2 hPa | - | - | - | - |
| 1788247070 | 22.22° C | 51% | 1036.8 hPa | - | - | - | - |
| 1788246170 | 22.22° C | 51% | 1037 hPa | - | - | - | - |
| 1788245270 | 21.67° C | 52% | 1036.8 hPa | - | - | - | - |
| 1788244370 | 22.22° C | 52% | 1036.9 hPa | - | - | - | - |
| 1788243470 | 21.67° C | 52% | 1036.5 hPa | - | - | - | - |
| 1788242570 | 21.67° C | 52% | 1036.4 hPa | - | - | - | - |
| 1788241664 | 22.22° C | 52% | 1036.5 hPa | - | - | - | - |
| 1788240764 | 22.22° C | 52% | 1036.3 hPa | - | - | - | - |
| 1788238964 | 22.22° C | 52% | 1036 hPa | - | - | - | - |
| 1788238064 | 22.78° C | 51% | 1035.9 hPa | - | - | - | - |
| 1788237164 | 22.78° C | 51% | 1035.8 hPa | - | - | - | - |
| 1788236264 | 22.78° C | 51% | 1035.6 hPa | - | - | - | - |
| 1788235364 | 22.78° C | 51% | 1035.1 hPa | - | - | - | - |
| 1788234464 | 22.78° C | 51% | 1035.2 hPa | - | - | - | - |
* Rain since midnight (hover to see other rain measurements)
** Current wind speed in m/s (hover to see current wind gust speed)